Location: Tarrant
(32.8168°N, 97.0772°W)
Time: 07:31:38
(UTC+00:00)

COSMOS 2455 - Pass Details

Date: 06 October 2022
Orbit: 900 x 909 km, 67.1° (Epoch: 06 December)

Event Time Altitude Azimuth Distance (km) Brightness Sun altitude
Rises 11:59:36 0° 333° (NNW) 3,538 5.6 -6.4°
Reaches altitude 10° 12:02:07 10° 333° (NNW) 2,594 5.0 -5.8°
Maximum altitude 12:08:08 83° 247° (WSW) 919 2.9 -4.6°
Drops below altitude 10° 12:14:09 10° 159° (SSE) 2,583 5.6 -3.3°
Sets 12:16:38 0° 159° (SSE) 3,521 6.3 -2.8°
